Home > Time Zones > World Clock > Weather > U.S.A. > Waco > Past weeks

Flag for U.S.A. Weather past 2 weeks in Waco, Texas, U.S.A.

Now
64 °F

Fog.


Feels Like: 64 °F
Forecast: 66 / 87 °F
Wind: No wind

Location: Waco Regional Airport

Current Time: Apr 25, 2015 at 6:46:43 AM

Latest Report: Apr 25, 2015 at 5:54 AM


Visibility: 2 mi

Pressure: 29.74 "Hg

Humidity: 100%

Dew point: 64 °F

Location of WacoLocation

Historic Weather in Waco — Graph

°F

Waco temperature yesterday

Maximum temperature yesterday: 80 °F (at 12:51 PM)
Minimum temperature yesterday: 66 °F (at 8:51 PM)
Average temperature yesterday: 73 °F

Past Weeks' High & Low Weather Summary

 TemperatureHumidityPressure
High81 °F (Apr 13, 2:51 PM)100% (Apr 22, 7:51 PM)30.19 "Hg (Apr 22, 7:51 PM)
Low44 °F (Apr 15, 6:51 AM)34% (Apr 20, 3:51 PM)29.63 "Hg (Apr 24, 5:51 PM)
Average67 °F79%29.91 "Hg
* Reported Apr 10 4:51 AM — Apr 25 4:51 AM, Waco, Weather by CustomWeather, © 2015

Note: Actual official high and low records may vary slightly from our data, if they occured in-between our weather recording intervals... More about our weather records

Advertising

Waco weather history for previous 24 hours

 ConditionsComfort  
Time TempWeatherWind HumidityBarometerVisibility
4:51 AM
Sat, Apr 25
67 °FFog.6 mph93%29.70 "Hg6 mi
3:51 AM65 °FClear.7 mph94%29.70 "Hg9 mi
2:51 AM64 °FClear.7 mph94%29.71 "Hg10 mi
1:51 AM64 °FClear.6 mph97%29.70 "Hg10 mi
12:51 AM66 °FClear.No wind90%29.69 "Hg10 mi
11:51 PM
Fri, Apr 24
68 °FClear.7 mph82%29.70 "Hg10 mi
10:51 PM69 °FClear.10 mph79%29.71 "Hg10 mi
9:51 PM68 °FLight rain. Clear.14 mph84%29.70 "Hg10 mi
8:51 PM66 °FThunderstorms. More clouds than sun.12 mph84%29.69 "Hg9 mi
7:51 PM78 °FOvercast.6 mph84%29.64 "Hg7 mi
6:51 PM79 °FPartly sunny.12 mph79%29.64 "Hg8 mi
5:51 PM80 °FMostly cloudy.12 mph76%29.63 "Hg8 mi
4:58 PM78 °FMostly cloudy.8 mph79%29.69 "Hg9 mi
3:51 PM77 °FCloudy.13 mph82%29.71 "Hg10 mi
2:51 PM77 °FCloudy.7 mph85%29.74 "Hg10 mi
1:51 PM79 °FMostly cloudy.12 mph69%29.77 "Hg10 mi
12:51 PM80 °FPartly sunny.12 mph67%29.79 "Hg10 mi
11:51 AM78 °FOvercast.8 mph74%29.80 "Hg10 mi
10:51 AM76 °FSunny.12 mph80%29.78 "Hg10 mi
9:51 AM72 °FSunny.8 mph84%29.80 "Hg10 mi
8:51 AM72 °FLight rain. Broken clouds.16 mph87%29.85 "Hg7 mi
7:51 AM72 °FFog.8 mph97%29.84 "Hg3 mi
7:02 AM72 °FFog.8 mph97%29.85 "Hg2 mi
6:51 AM72 °FFog.8 mph97%29.83 "Hg4 mi
6:04 AM72 °FFog.7 mph97%29.83 "Hg3 mi
6:01 AM72 °FFog.7 mph97%29.83 "Hg3 mi
Weather by CustomWeather, © 2015

See weather overviewHow to use our weather pages